Location: Niverville
(49.6028°N, 97.0419°W)
Time: 01:31:50
(UTC-05:00)

Daily predictions for brighter satellites

Satellite Brightness Start Highest point End
(mag) Time Altitude Azimuth Time Altitude Azimuth Time Altitude Azimuth
Okean 1 3.8 00:00:49 10° NNW 00:04:48 55° W 00:06:21 33° SSW
Cosmos 1689 Rocket 4.3 00:05:20 18° E 00:05:55 18° ENE 00:08:12 10° NNE
DMSP B5D2-2 4.4 00:01:01 10° N 00:06:11 64° WNW 00:10:10 17° SSW
Cosmos 2369 Rocket 3.3 00:12:50 24° ESE 00:13:46 25° ESE 00:18:16 10° NE
AVUM R/B 4.4 00:10:39 10° NW 00:13:52 33° WSW 00:14:19 32° SW
BREEZE-M TANK 3.0 00:15:44 10° W 00:22:46 41° SSW 00:23:06 40° SSW
Cosmos 1544 Rocket 4.2 00:26:37 35° ESE 00:27:19 38° E 00:31:20 10° NNE
CZ-2C R/B 4.3 00:24:33 10° NE 00:28:09 19° E 00:29:23 17° ESE
NOSS 8 (F) 4.5 00:27:35 45° SW 00:28:36 87° WNW 00:32:36 10° NE
Cosmos 1503 Rocket 4.0 00:25:00 10° NNW 00:30:15 80° ENE 00:32:17 39° SSE
Okean 2 3.7 00:29:47 10° N 00:33:55 58° ENE 00:34:49 46° SE
Cosmos 2239 Rocket 4.5 00:32:18 31° S 00:35:35 90° E 00:41:57 10° N
ISS -2.2 00:37:54 33° ENE 00:37:54 33° ENE 00:39:52 10° ENE
CZ-4B R/B 1.9 00:38:36 44° ENE 00:38:36 44° ENE 00:41:38 10° N
Iridium 4 Rocket 3.9 00:35:03 10° N 00:40:50 73° W 00:43:33 34° SSW
Meteor 2-15 Rocket 4.4 00:34:49 10° N 00:41:00 83° E 00:43:39 37° SSE
Cosmos 1331 Rocket 4.2 00:38:16 25° SW 00:41:17 68° WNW 00:46:27 10° NNE
Cosmos 1833 Rocket 4.3 00:41:25 10° NW 00:45:42 23° WSW 00:47:59 18° SW
Terra 4.0 00:43:30 11° SW 00:46:10 16° W 00:49:09 10° NW
Cosmos 1315 Rocket 2.8 00:46:43 56° SE 00:47:03 59° E 00:50:57 10° NNE
Cosmos 1602 4.0 00:46:21 46° SW 00:47:15 61° WNW 00:51:08 10° N
Cosmos 2278 Rocket 4.4 00:44:00 10° W 00:48:35 24° NW 00:53:12 10° NNE
Cosmos 1633 2.4 00:48:39 71° SSW 00:49:01 88° W 00:52:45 10° N
Meteor 2-15 4.4 00:43:02 10° NNW 00:49:10 77° W 00:51:47 36° S
Meteor 2-14 Rocket 4.4 00:47:32 35° S 00:50:17 86° E 00:56:28 10° N
SeaSat 1 4.3 00:47:50 10° E 00:51:48 25° NE 00:55:47 10° N
Lacrosse 5 rocket 2.5 00:53:23 25° E 00:53:23 25° E 00:55:17 10° ENE
Helios 1A Rocket 4.1 00:49:26 10° NE 00:53:04 28° E 00:53:19 28° ESE
Landsat 5 3.6 00:54:24 50° SE 00:55:25 72° ENE 00:59:40 10° N
Cosmos 1356 4.0 00:56:27 45° WSW 00:56:58 50° WNW 01:00:26 10° N
Cosmos 1943 Rocket 3.5 00:56:26 22° ESE 00:57:18 23° ESE 01:01:37 10° NE
H-2A R/B 4.4 00:56:54 10° WSW 00:59:29 13° W 01:02:03 10° WNW
NOSS 3-1 (A) 4.0 00:52:15 10° NW 00:59:38 69° SW 01:03:41 32° SSE
Meteor 2-4 Rocket 3.9 00:55:40 10° NNW 01:00:59 60° W 01:02:57 38° SSW
Cosmos 1354 Rocket 4.3 00:56:54 10° NNW 01:02:04 57° WSW 01:03:35 41° SSW
Lacrosse 5 2.1 01:01:49 44° SSE 01:02:09 45° SE 01:07:00 10° ENE
Cosmos 1892 Rocket 3.8 00:58:02 10° NNW 01:02:21 60° W 01:03:15 48° SW
Cosmos 2082 Rocket 4.3 00:59:44 10° WNW 01:02:27 14° W 01:04:56 11° WSW
H-2A R/B 2.7 01:00:09 10° NNE 01:04:42 69° ESE 01:05:38 53° SSE
SL-8 R/B 3.5 01:01:35 10° W 01:06:23 71° SSW 01:08:32 32° ESE
Meteor 1-11 Rocket 4.3 01:05:10 26° SW 01:08:21 54° WNW 01:14:02 10° N
Cosmos 1821 Rocket 4.4 01:06:17 27° SW 01:09:43 57° WNW 01:15:52 10° N
Cosmos 1605 Rocket 4.0 01:07:19 36° S 01:10:09 89° WNW 01:16:36 10° N
Cosmos 2285 Rocket 3.9 01:09:04 36° SSW 01:11:53 81° ESE 01:18:19 10° NNE
Cosmos 1346 Rocket 2.7 01:08:18 10° N 01:12:14 69° ENE 01:12:40 62° ESE
Genesis I 3.1 01:13:59 71° SSE 01:14:15 75° SE 01:18:17 10° NE
Gbstr 26 Del rocket 4.3 01:11:00 10° W 01:13:58 26° WSW 01:13:58 26° WSW
Cosmos 2263 4.4 01:14:26 41° SSE 01:15:52 52° ESE 01:21:21 10° NE
Cosmos 1536 3.8 01:19:29 32° WSW 01:20:30 38° WNW 01:24:17 10° N
ATLAS 2AS CENTAUR R/B 3.1 01:12:58 10° NW 01:21:12 80° NE 01:27:02 20° SE
Cosmos 1400 Rocket 4.1 01:21:35 28° WSW 01:22:54 35° WNW 01:26:46 10° N
Cosmos 1602 Rocket 3.5 01:18:47 10° N 01:23:15 85° E 01:24:08 57° SSE
Cosmos 1153 Rocket 4.5 01:22:18 38° S 01:24:56 85° E 01:31:18 10° N
Cosmos 44 Rocket 3.9 01:20:18 10° NW 01:25:25 57° NE 01:28:22 24° ESE
Cosmos 1934 Rocket 4.5 01:23:09 27° SW 01:26:16 51° WNW 01:32:10 10° N
ALOS 2 3.3 01:26:47 36° WSW 01:27:31 39° W 01:31:40 10° NNW
Cosmos 2173 Rocket 4.4 01:25:22 35° SSE 01:27:51 55° E 01:34:02 10° NNE
Cosmos 1626 Rocket 3.5 01:24:26 10° N 01:28:56 85° WSW 01:29:47 58° S
Cosmos 2084 Rocket 3.5 01:28:34 10° NW 01:32:05 51° WSW 01:32:05 51° WSW
Cosmos 1833 4.1 01:27:30 10° NNW 01:33:10 89° ENE 01:35:20 40° SSE
USA 234 3.6 01:27:47 10° ENE 01:34:15 65° NNW 01:40:43 10° WSW
Cosmos 1455 Rocket 3.3 01:34:38 47° SW 01:35:36 60° WNW 01:39:56 10° N
Cosmos 1975 2.8 01:35:30 61° SE 01:35:55 66° E 01:39:57 10° NNE
Cosmos 1992 Rocket 3.9 01:34:48 48° S 01:36:15 74° ESE 01:41:29 10° NNE
Cosmos 1689 Rocket 3.7 01:38:23 29° W 01:38:23 29° W 01:40:49 10° NNW
BREEZE-M DEB (TANK) 3.4 01:29:30 10° W 01:42:39 87° SSW 01:46:21 10° E
SL-24 DEB 4.4 01:47:52 10° N 01:52:39 69° E 01:53:55 47° SSE
Cosmos 1743 3.6 01:53:51 35° ESE 01:54:16 36° E 01:57:51 10° NNE
Cosmos 2369 Rocket 2.5 01:54:35 30° SW 01:57:22 63° WNW 02:02:58 10° NNE
Cosmos 2219 3.2 01:55:41 10° NNW 02:01:22 80° ENE 02:04:09 32° SE
Cosmos 1066 Rocket 4.0 01:58:05 10° NNW 02:03:28 79° W 02:05:14 44° S
Cosmos 1340 4.1 02:00:04 10° N 02:03:32 32° ENE 02:04:47 25° ESE
Cosmos 2227 Rocket 3.8 02:01:37 10° NNW 02:06:44 33° NE 02:11:49 10° ESE
CZ-2C R/B 2.6 02:03:46 10° N 02:08:59 72° WNW 02:10:54 40° SW
Cosmos 44 3.8 02:04:28 10° NW 02:09:45 62° NE 02:13:39 17° SE
GP-B 3.6 02:05:47 10° N 02:10:05 48° W 02:11:03 40° WSW
Cosmos 1606 Rocket 4.0 02:10:18 41° SE 02:11:16 49° E 02:15:28 10° NNE
CZ-4B R/B 3.9 02:12:21 11° WNW 02:12:21 11° WNW 02:12:56 10° WNW
CZ-2C R/B 3.1 02:10:56 44° SSW 02:12:16 60° WSW 02:17:06 10° NNW
ISS -2.8 02:10:23 13° WNW 02:13:12 58° N 02:16:26 10° E
PSLV R/B 3.9 02:18:21 57° SSW 02:18:58 68° WSW 02:23:07 10° NNW
Cosmos 1666 3.6 02:25:30 33° ESE 02:26:15 37° E 02:29:46 10° NNE
Cosmos 2058 Rocket 3.7 02:26:23 36° SE 02:27:42 48° E 02:32:00 10° NNE
Helios 1A Rocket 4.2 02:24:36 10° N 02:28:21 33° WNW 02:29:39 27° WSW
Cosmos 2297 Rocket 3.7 02:23:21 10° NNW 02:28:29 34° NE 02:33:36 10° ESE
SeaSat 1 2.4 02:27:11 40° SSE 02:28:57 72° WSW 02:33:54 10° NNW
Lacrosse 5 rocket 2.0 02:29:04 23° W 02:31:01 46° NNW 02:34:34 10° NE
Cosmos 2100 Rocket 4.5 02:29:43 29° SW 02:32:45 52° WNW 02:38:58 10° N
Cosmos 1500 3.7 02:33:10 42° WSW 02:33:45 45° WNW 02:37:26 10° N
Cosmos 1953 Rocket 3.5 02:29:33 10° NNW 02:33:54 72° W 02:34:53 51° SSW
Cosmos 1656 Rocket 3.8 02:33:23 37° S 02:35:33 64° ESE 02:41:09 10° NNE
Gblst 52 Del rocket 4.4 02:30:43 17° WSW 02:36:17 82° SSE 02:42:21 10° ENE
Cosmos 1943 Rocket 2.4 02:37:57 32° SW 02:40:33 66° WNW 02:46:11 10° NNE
Cosmos 968 Rocket 4.2 02:37:26 10° NW 02:42:14 37° WSW 02:43:19 33° SW
Cosmos 972 Rocket 4.4 02:39:58 10° NNW 02:44:49 59° ENE 02:48:35 18° SE
Lacrosse 5 2.4 02:40:58 15° W 02:45:06 57° NNW 02:50:08 10° NE
Cosmos 1825 Rocket 4.2 02:41:18 10° NNW 02:45:31 42° W 02:46:25 37° WSW
Landsat 4 4.2 02:45:38 32° SE 02:47:09 59° ENE 02:50:57 10° N
Cosmos 1726 Rocket 3.4 02:46:56 47° SSW 02:48:09 83° W 02:52:30 10° N
Cosmos 2233 Rocket 4.1 02:48:05 29° S 02:51:19 71° E 02:57:26 10° NNE
Cosmos 1818 3.9 02:50:08 26° WSW 02:53:11 62° NW 02:58:40 10° NE
Cosmos 2016 Rocket 4.4 02:51:09 29° SW 02:54:04 51° WNW 03:00:02 10° N
Cosmos 2098 Rocket 4.3 02:50:34 31° SSW 02:54:12 79° W 03:01:52 10° N
NOSS 3-3 (A) 4.2 02:51:45 32° SSW 02:54:44 61° SE 03:01:27 10° NE
NOSS 3-3 (C) 4.2 02:51:51 32° S 02:54:50 61° SE 03:01:32 10° NE
Cosmos 1758 Rocket 4.0 02:53:41 10° NNW 02:58:03 49° W 02:59:14 39° SW
Cosmos 44 Rocket 4.3 03:02:20 10° WNW 03:06:41 28° WSW 03:07:02 28° WSW
ERS-2 4.0 03:03:41 10° NE 03:06:47 24° E 03:08:37 17° SE
Uosat 12 SS-18 rocket 4.3 03:06:51 10° NW 03:11:20 61° SW 03:14:55 20° SSE
ATLAS 2AS CENTAUR R/B 3.8 03:04:42 10° NW 03:11:36 32° WSW 03:14:24 25° SW
Abrixas 2.3 03:12:12 73° S 03:12:12 73° S 03:15:15 10° E
AQUA 4.4 03:09:45 10° NNE 03:14:25 51° E 03:17:03 24° SSE
Cosmos 1707 3.9 03:12:04 10° N 03:15:48 40° ENE 03:18:54 14° SE
Meteor 2-17 Rocket 4.4 03:12:58 28° SSW 03:16:26 84° W 03:22:35 10° N
USA 234 4.3 03:10:35 10° ENE 03:16:47 47° N 03:22:59 10° WNW
ATLAS CENTAUR R/B 3.8 03:14:20 12° SSE 03:17:03 18° ESE 03:20:24 10° ENE
Cosmos 2208 Rocket 3.9 03:15:32 31° SSW 03:18:03 88° ESE 03:23:22 10° NNE
Cosmos 2298 Rocket 4.0 03:19:15 10° NNW 03:24:35 86° ENE 03:29:35 12° SSE
CBERS-1 4.2 03:20:42 10° NNE 03:25:51 67° ESE 03:28:58 24° S
Cosmos 1743 4.5 03:29:01 18° W 03:30:16 21° WNW 03:33:16 10° NNW
Cosmos 972 4.5 03:25:26 10° NNW 03:30:22 76° ENE 03:35:19 10° SSE
BREEZE-M DEB (TANK) 3.2 03:31:13 30° SW 03:32:44 50° SSE 03:36:13 10° E
USA 161 2.4 03:34:18 20° SE 03:36:02 46° ENE 03:38:47 10° N
CZ-2D R/B 3.7 03:31:45 10° NNE 03:36:34 30° E 03:41:19 10° SSE
Meteor 1-15 Rocket 4.4 03:33:13 25° SSW 03:36:37 65° WNW 03:42:30 10° N
Cosmos 220 Rocket 3.9 03:33:20 10° NNW 03:37:44 82° WSW 03:41:08 16° SSE
Okean O Rocket 4.5 03:37:16 10° ENE 03:38:12 11° E 03:39:09 10° E
IRS-1C 4.3 03:33:08 10° NNE 03:38:31 70° ESE 03:42:12 20° S
Cosmos 1340 4.1 03:36:06 10° NW 03:39:07 23° W 03:39:40 22° WSW
Cosmos 2082 3.6 03:33:38 10° NNW 03:39:16 69° WSW 03:44:49 10° SSE
Cosmos 2228 3.6 03:39:25 27° SW 03:41:19 45° WNW 03:45:28 10° N
Meteor 2-5 Rocket 3.8 03:36:01 10° NNW 03:41:54 84° WSW 03:47:08 14° S
Cosmos 2369 Rocket 4.4 03:38:57 10° WNW 03:42:35 17° NW 03:46:12 10° N
Cosmos 1697 Rocket 4.3 03:39:48 10° SSE 03:44:28 27° ESE 03:49:09 10° NE
SL-08 R/B 3.6 03:42:26 25° SSW 03:44:49 48° W 03:49:21 10° NNW
BREEZE-M DEB (TANK) 2.2 03:46:06 36° SSW 03:46:33 40° S 03:49:33 10° E
Cosmos 2034 Rocket 4.3 03:41:26 15° S 03:46:40 67° E 03:52:49 10° NNE
SL-16 R/B 2.8 03:40:59 10° SSE 03:47:07 71° ENE 03:53:16 10° NNW
ISS -3.5 03:46:29 10° WNW 03:49:44 73° SSW 03:52:59 10° ESE
Cosmos 44 4.4 03:46:22 10° WNW 03:50:39 26° WSW 03:51:59 23° SW
Cosmos 2227 Rocket 2.3 03:45:33 10° NW 03:51:06 54° WSW 03:56:12 12° S
Cosmos 1980 Rocket 4.3 03:48:17 10° SE 03:52:12 20° E 03:56:08 10° NE
Cosmos 858 Rocket 4.4 03:47:55 10° NNW 03:53:08 70° WSW 03:58:21 10° SSE
IRS-P3 4.4 03:49:21 10° N 03:54:36 56° WNW 03:58:06 21° SW
Nadezhda 4 Rocket 4.2 03:49:26 10° N 03:55:37 72° E 04:01:50 10° SSE
Cosmos 990 Rocket 4.1 03:51:32 10° NNW 03:56:49 78° ENE 04:02:05 10° SSE
Cosmos 468 Rocket 4.2 03:56:59 18° S 04:00:48 67° ESE 04:05:57 10° NNE
Cosmos 1408 Rocket 4.3 03:57:43 10° N 04:02:01 53° ENE 04:06:20 10° SSE
Cosmos 1666 4.5 04:00:30 16° W 04:02:06 20° WNW 04:04:58 10° NNW
Cosmos 2150 Rocket 4.1 03:58:06 10° NNW 04:03:14 54° WSW 04:08:00 11° S
Cosmos 1766 Rocket 4.4 03:59:21 10° N 04:03:39 51° ENE 04:07:58 10° SSE
SeaSat 1 4.4 04:06:58 12° WSW 04:07:16 12° W 04:09:03 10° W
Cosmos 1812 Rocket 3.9 04:05:09 21° SW 04:07:56 53° WNW 04:12:19 10° N
GEOS 3 Rocket 3.6 04:04:53 10° SSE 04:10:01 59° SW 04:15:09 10° NW
Lacrosse 5 rocket 3.2 04:07:45 10° WNW 04:10:53 25° N 04:13:59 10° NE
NOSS 2-1 (D) 3.9 04:08:17 20° SSW 04:10:55 54° SE 04:15:28 10° NE
Cosmos 2278 3.7 04:07:06 19° SSW 04:11:18 82° WNW 04:17:02 10° NNE
Cosmos 405 Rocket 3.3 04:07:26 10° NNW 04:11:19 41° W 04:13:48 19° SSW
Cosmos 2369 3.7 04:07:53 18° SSW 04:12:10 89° WNW 04:17:54 10° NNE
NOSS 2-1 (C) 3.9 04:09:37 19° SSW 04:12:17 54° SE 04:16:51 10° NE
Cosmos 2297 Rocket 2.4 04:07:19 10° NW 04:12:46 51° WSW 04:18:13 10° S
Cosmos 1898 Rocket 4.0 04:11:52 10° NW 04:16:53 42° WSW 04:21:41 11° S
Cosmos 1766 3.8 04:13:39 11° S 04:17:21 58° E 04:21:16 10° NNE
UNK 3.7 04:12:53 10° S 04:17:34 79° WSW 04:22:17 10° NNW
NPP 4.4 04:15:55 10° N 04:20:57 41° WNW 04:25:03 15° SW
Resurs 1-4 Rocket 2.3 04:17:44 10° NNE 04:23:01 70° ESE 04:28:15 10° S
Cosmos 1125 Rocket 4.2 04:17:56 10° NNW 04:23:07 59° ENE 04:28:15 10° SE
Cosmos 1943 Rocket 4.3 04:21:45 10° WNW 04:25:27 18° NW 04:29:11 10° N
UNKNOWN OBJECT B 3.6 04:21:57 10° NNE 04:25:48 49° E 04:29:34 10° S
NOSS 2-1 (E) 3.7 04:24:14 17° SSW 04:27:20 69° SE 04:32:09 10° NE
Lacrosse 5 3.4 04:24:08 10° WNW 04:28:51 36° N 04:33:33 10° ENE
Geosat 4.4 04:24:25 10° NNE 04:29:21 55° NW 04:33:37 14° SW
Cosmos 1378 3.1 04:26:48 10° NNW 04:30:35 72° W 04:34:21 10° S
ADEOS 3.9 04:25:59 10° N 04:31:05 54° WNW 04:35:33 13° SW
Cosmos 1937 Rocket 3.9 04:26:31 10° NW 04:31:23 42° WSW 04:36:15 10° S
Meteor 1-24 Rocket 3.9 04:26:27 10° NNW 04:31:59 58° W 04:37:42 10° S
Cosmos 1464 Rocket 4.5 04:27:05 14° SW 04:32:15 48° WNW 04:38:23 10° N
Cosmos 1758 4.5 04:28:48 10° SSE 04:32:37 42° E 04:36:25 10° NNE
Cosmos 841 Rocket 4.0 04:28:39 10° S 04:33:48 57° ESE 04:38:59 10° NNE
Okean 3 Rocket 4.3 04:30:06 10° NNW 04:34:09 35° W 04:37:41 13° SSW
Meteor 1-22 Rocket 4.4 04:28:24 10° SSW 04:34:28 87° WNW 04:40:39 10° NNE
NOSS 3-4 (A) 3.9 04:28:19 10° NW 04:34:59 51° WSW 04:42:00 10° SSE
NOSS 3-4 (C) 4.0 04:28:25 10° NW 04:35:07 51° WSW 04:42:11 10° SSE
CZ-2C R/B 4.3 04:32:52 10° SSE 04:37:30 63° ENE 04:42:04 10° N
Cosmos 1953 3.2 04:34:43 10° S 04:38:38 50° E 04:42:36 10° NNE
MTI 3.7 04:36:06 10° S 04:39:23 79° WSW 04:42:42 10° NNW
ARIANE 5 R/B 2.6 04:35:17 10° N 04:40:22 68° WNW 04:45:27 10° SSW
ERS-2 3.3 04:37:16 10° N 04:40:37 31° WNW 04:43:28 13° SW
Cosmos 1763 Rocket 3.7 04:36:20 10° SSW 04:41:33 73° ESE 04:46:44 10° NNE
EO 1 Del DPAF 3.5 04:38:28 10° S 04:42:14 49° W 04:46:02 10° NNW
Cosmos 1092 Rocket 4.0 04:37:26 10° NNW 04:43:42 72° W 04:49:58 10° S
Cosmos 1437 3.3 04:41:47 10° N 04:45:07 62° ENE 04:48:25 10° SSE
CZ-2D R/B 4.0 04:42:32 10° NNE 04:46:50 64° ESE 04:51:11 10° S
CZ-3A R/B 3.5 04:36:24 11° SW 04:47:38 65° SSE 04:51:57 10° ENE
Abrixas 2.9 04:45:08 10° W 04:48:03 41° SSW 04:50:59 10° SE
Cosmos 2263 Rocket 4.2 04:43:41 10° NNW 04:48:45 33° NE 04:53:46 10° ESE
Cosmos 1441 Rocket 3.5 04:45:01 10° NNW 04:48:54 52° W 04:52:47 10° S
CZ-4B R/B 4.3 04:44:49 10° NNE 04:50:09 44° E 04:55:21 10° S
Cosmos 1805 3.7 04:47:17 10° S 04:51:09 61° E 04:55:02 10° NNE
Cosmos 1707 4.4 04:48:40 10° NW 04:51:30 19° W 04:54:08 11° SW
ATLAS CENTAUR R/B 1.9 04:50:41 11° SW 04:55:36 86° NW 05:00:37 10° NE
Cosmos 2227 4.2 04:52:28 10° NNW 04:58:15 79° WSW 05:04:00 10° SSE
USA 234 4.0 04:52:51 10° E 04:59:15 59° NNE 05:05:40 10° WNW
Cosmos 1461 3.0 04:57:30 10° NW 05:01:46 82° NE 05:05:48 10° SE
Thor Agena Rocket 3.8 04:56:51 10° SSE 05:01:52 76° ENE 05:06:56 10° NNW
IRS-1D 4.0 04:59:47 10° N 05:04:30 46° WNW 05:09:14 10° SW
RESURS DK-1 2.7 05:00:41 10° NNW 05:04:51 72° ENE 05:08:58 10° SE
MOZ.5/SAFIR/RUBIN 5/SL-8 3.8 05:00:30 10° SSE 05:05:13 84° WSW 05:09:57 10° NNW
Meteor 1-21 Rocket 4.4 04:59:37 10° NNW 05:05:32 76° W 05:11:27 10° S
Cosmos 1656 4.0 05:04:52 10° SW 05:10:29 60° WNW 05:16:06 10° NNE
Cosmos 1500 Rocket 3.6 05:07:54 10° N 05:12:21 87° W 05:16:45 10° S
Cosmos 540 Rocket 4.3 05:09:37 10° S 05:14:36 51° ESE 05:19:37 10° NNE
Okean O Rocket 1.7 05:10:52 10° NNE 05:15:17 85° ESE 05:19:42 10° SSW
UNK 1.8 05:13:01 10° W 05:16:21 70° SSW 05:18:23 10° ESE
CZ-2D R/B 2.7 05:11:36 10° N 05:16:50 47° WNW 05:22:01 10° SW
